Tracking 19245 objects as of 22-Aug-2018
HD Live streaming from Space Station
objects crossing your sky now

EUTE 12 WEST A (AB 1)

Track EUTE 12 WEST A (AB 1) now!
EUTE 12 WEST A (AB 1) is classified as:


NORAD ID: 27508
Int'l Code: 2002-040A
Perigee: 35,782.2 km
Apogee: 35,805.5 km
Inclination: 0.2 °
Period: 1,436.1 minutes
Semi major axis: 42164 km
RCS: 16.1652 m2 (large)
Launch date: August 28, 2002
Source: European Telecommunications Satellite Organization (EUTE)
Launch site: FRENCH GUIANA (FRGUI)

Twenty channels, telecommunications services between Europe and the Americas.
aabbcc
Your satellite tracking list
Your tracking list is empty




NASA's NSSDC Master Catalog

Two Line Element Set (TLE):
1 27508U 02040A   18231.92365197 +.00000036 +00000-0 +00000-0 0  9994
2 27508 000.1869 078.7232 0002769 102.5496 178.7160 01.00271385058547
Source of the keplerian elements: AFSPC